Location: Observatoire
(46.1952°N, 5.3391°E)
Time: 02:11:12
(UTC+01:00)

ISS - Visible Passes

Search period start: 29 November 2023 00:00
Search period end: 09 December 2023 00:00
Orbit: 416 x 418 km, 51.6° (Epoch: 28 November)

Date Brightness Start Highest point End Pass type
(mag) Time Alt. Az. Time Alt. Az. Time Alt. Az.
29 Nov -3.0 18:16:45 10° WNW 18:19:55 37° NNE 18:21:00 28° NE visible
29 Nov -0.5 19:53:30 10° WNW 19:53:55 13° WNW 19:53:55 13° WNW visible
30 Nov -2.8 17:28:22 10° WNW 17:31:27 32° N 17:34:32 10° ENE visible
30 Nov -3.0 19:05:09 10° WNW 19:07:41 48° NW 19:07:41 48° NW visible
01 Dec -3.7 18:16:47 10° WNW 18:20:06 58° NNE 18:21:32 30° E visible
01 Dec -0.5 19:53:46 10° W 19:54:27 14° W 19:54:27 14° W visible
02 Dec -3.3 17:28:22 10° WNW 17:31:36 44° NNE 17:34:50 10° E visible
02 Dec -2.8 19:05:09 10° WNW 19:08:23 44° SW 19:08:24 44° SSW visible
03 Dec -3.6 18:16:37 10° WNW 18:19:58 70° SSW 18:22:32 16° SE visible
03 Dec -0.4 19:54:57 10° WSW 19:55:29 11° WSW 19:55:29 11° WSW visible
04 Dec -3.8 17:28:05 10° WNW 17:31:27 78° NNE 17:34:49 10° ESE visible
04 Dec -1.1 19:05:26 10° W 19:07:52 19° SW 19:09:52 12° S visible
05 Dec -1.8 18:16:30 10° WNW 18:19:28 29° SW 18:22:25 10° SSE visible
06 Dec -2.6 17:27:44 10° WNW 17:30:59 47° SW 17:34:12 10° SE visible
07 Dec -0.4 18:17:07 10° WSW 18:18:36 12° SW 18:20:06 10° SSW visible
08 Dec -0.7 17:27:36 10° W 17:30:08 20° SW 17:32:40 10° S visible
